Temp
64 63 62 61 62 64 65 65 64 63 63 63 62 63 63 64 64 65 65 64 63 63 64 64 65 65 65 66 65 64 64 65 65 64 64 64 64 64 64 64 65 65
64 63 62 63 64 65 65 64 64 64 63 63 63 63 64 64 64 64 64 64 64 63 64 64 64 65 65 65 64 63 64 64 64 65 63 63 64 64 64 65 65 65
63 63 62 64 64 64 63 64 65 64 64 64 64 64 64 65 64 63 64 63 63 63 64 64 64 64 65 64 64 63 63 64 64 64 64 64 64 63 63 64 64 65
61 62 64 64 64 64 64 64 64 64 65 64 64 64 64 65 64 64 63 65 63 63 63 63 63 64 64 65 64 64 63 63 64 64 64 64 64 64 63 64 64 65
60 62 64 64 64 63 63 63 63 63 64 64 64 64 63 63 63 63 63 63 63 62 62 63 63 63 63 63 63 62 62 62 63 64 63 63 64 64 64 64 64 64
59 59 60 62 63 62 62 62 63 63 63 62 63 64 63 64 63 63 63 62 62 62 62 62 62 62 62 63 63 63 63 62 63 63 63 63 63 64 64 63 63 63
59 60 59 61 60 61 62 62 61 62 62 63 63 62 62 63 63 63 63 63 63 62 62 62 62 61 61 61 62 62 62 62 63 63 63 63 63 63 64 64 63 63
60 61 61 61 60 60 61 62 62 62 62 63 62 62 62 62 63 63 63 63 63 62 62 62 62 62 62 62 62 62 62 63 62 62 63 63 63 63 63 63 63 62
60 60 60 60 59 59 60 61 61 62 62 61 61 61 61 61 62 63 63 63 62 62 62 62 62 62 62 62 62 63 62 62 63 63 62 62 62 62 63 63 63 62
59 59 58 58 57 58 59 60 60 60 61 60 60 60 59 60 60 60 61 61 60 61 62 62 62 62 62 63 63 63 62 62 63 62 62 62 62 62 63 63 62 62
58 58 57 57 57 58 58 59 59 59 59 59 59 58 58 58 58 58 59 58 59 59 61 61 58 57 58 59 61 62 62 62 62 61 61 62 62 62 64 63 63 62
57 57 57 57 58 58 58 58 58 58 58 58 58 57 57 56 55 56 56 56 57 57 59 54 52 52 51 50 51 53 58 62 62 62 62 62 62 62 63 64 63 63
57 57 57 58 58 58 58 58 58 57 57 56 57 56 55 54 55 54 54 54 54 55 56 52 51 50 49 47 48 50 52 56 61 61 61 62 63 63 63 63 63 63
59 59 58 59 59 58 58 57 57 57 56 56 56 55 54 54 54 53 53 54 53 53 54 53 50 49 47 46 45 47 48 51 57 61 61 61 62 62 62 62 63 64
59 59 59 58 58 57 57 56 56 56 56 55 55 55 54 54 53 53 52 52 52 52 52 53 49 47 46 44 43 44 45 48 52 57 61 61 61 62 62 63 63 63
58 58 58 57 57 56 56 56 56 56 55 54 54 54 53 53 52 51 51 51 50 50 50 50 49 47 46 44 43 43 43 46 49 53 57 60 60 61 61 62 63 63
57 57 57 56 56 56 56 56 55 55 54 53 53 52 52 52 51 50 50 50 49 49 48 48 48 47 43 40 40 41 43 44 46 50 55 58 60 61 61 60 62 62
57 57 56 56 56 56 55 55 54 53 52 51 51 51 51 50 49 49 49 49 49 49 48 48 47 46 41 41 40 40 42 42 44 48 54 57 59 60 61 61 61 61
56 56 56 55 56 56 55 55 54 52 51 50 50 50 50 49 48 48 47 48 48 47 47 47 47 44 41 41 40 40 40 42 43 48 52 55 58 60 61 61 60 59
55 55 55 55 55 54 53 53 53 52 51 51 50 50 49 48 48 47 47 46 47 47 47 47 46 43 41 40 40 40 40 41 46 48 52 55 58 60 61 60 60 59
52 52 53 53 54 54 53 51 50 51 51 50 50 50 49 48 47 46 47 46 46 46 46 46 46 42 40 40 40 40 40 42 49 52 55 56 58 60 61 60 60 60
50 50 50 51 51 51 51 51 50 50 50 49 48 48 49 49 49 48 46 46 46 45 45 44 45 42 40 40 40 39 41 47 51 53 55 56 58 54 53 52 53 57
49 49 49 49 49 49 48 49 49 49 49 49 48 47 48 48 48 47 47 46 45 45 44 43 44 43 40 40 40 39 42 46 49 52 53 53 52 52 51 50 50 50
50 50 49 49 48 47 47 48 49 50 49 50 49 48 48 48 47 47 47 46 45 44 45 43 43 44 41 40 40 40 42 44 46 48 50 49 49 50 49 48 49 48
50 50 49 49 48 47 48 47 47 48 49 49 48 48 48 48 47 46 46 46 46 45 47 44 44 44 41 40 40 40 42 44 44 45 47 46 46 46 46 46 46 46
50 49 49 48 47 47 47 47 48 48 47 47 47 47 46 46 46 46 45 44 45 45 45 45 44 43 43 40 40 40 40 43 44 43 43 44 44 44 44 44 44 44
MSLP
1018.01 1017.93 1018.01 1018.01 1017.97 1017.81 1017.73 1017.65 1017.45 1017.33 1017.21 1017.01 1016.93 1016.73 1016.53 1016.25 1016.13 1015.97 1015.81 1015.77 1015.69 1015.73 1015.73 1015.53 1015.37 1015.45 1015.49 1015.49 1015.53 1015.73 1015.77 1015.57 1015.45 1015.49 1015.65 1015.73 1015.77 1015.69 1015.73 1015.77 1015.61 1015.49
1018.17 1018.01 1017.97 1017.93 1017.89 1017.85 1017.81 1017.65 1017.45 1017.33 1017.17 1016.97 1016.81 1016.61 1016.37 1016.21 1016.09 1015.93 1015.93 1015.85 1015.73 1015.65 1015.37 1015.21 1015.13 1015.13 1015.17 1015.21 1015.25 1015.49 1015.37 1015.17 1015.05 1014.93 1015.17 1015.41 1015.41 1015.49 1015.41 1015.37 1015.21 1015.17
1018.17 1018.09 1018.05 1018.13 1018.13 1018.05 1017.93 1017.73 1017.57 1017.45 1017.29 1017.01 1016.73 1016.53 1016.29 1016.05 1015.93 1015.85 1015.65 1015.65 1015.65 1015.45 1015.25 1015.13 1015.09 1015.01 1015.01 1014.97 1014.97 1015.05 1015.01 1014.85 1014.73 1014.49 1014.65 1014.77 1014.89 1015.13 1015.17 1015.09 1014.97 1014.89
1018.21 1018.13 1018.17 1018.13 1018.13 1018.17 1018.01 1017.93 1017.85 1017.61 1017.37 1017.13 1016.93 1016.57 1016.29 1016.09 1015.89 1015.73 1015.53 1015.33 1015.25 1015.17 1015.05 1014.89 1014.85 1014.85 1014.85 1014.89 1014.85 1014.77 1014.61 1014.57 1014.37 1014.33 1014.41 1014.45 1014.53 1014.69 1014.89 1014.93 1014.81 1014.69
1018.25 1018.17 1018.13 1018.09 1018.09 1018.13 1018.09 1018.13 1018.05 1017.85 1017.61 1017.33 1016.97 1016.65 1016.37 1016.13 1015.93 1015.73 1015.49 1015.29 1015.17 1015.21 1015.13 1015.01 1014.85 1014.77 1014.61 1014.53 1014.45 1014.57 1014.57 1014.53 1014.33 1014.21 1014.25 1014.29 1014.21 1014.25 1014.29 1014.57 1014.61 1014.61
1018.25 1018.17 1018.13 1018.17 1018.17 1018.13 1018.17 1018.21 1018.17 1017.97 1017.73 1017.45 1017.21 1016.85 1016.57 1016.29 1015.97 1015.73 1015.49 1015.33 1015.13 1014.97 1014.89 1014.77 1014.69 1014.61 1014.49 1014.29 1014.09 1014.01 1014.05 1014.21 1014.09 1014.01 1014.05 1014.05 1014.01 1013.93 1014.05 1014.33 1014.53 1014.57
1018.45 1018.33 1018.37 1018.33 1018.33 1018.29 1018.29 1018.25 1018.21 1018.05 1017.89 1017.61 1017.37 1017.13 1016.81 1016.53 1016.21 1015.89 1015.57 1015.25 1015.01 1014.85 1014.77 1014.61 1014.49 1014.45 1014.37 1014.29 1014.13 1014.09 1014.01 1014.13 1014.17 1014.01 1014.05 1013.89 1013.89 1013.97 1013.93 1014.13 1014.29 1014.41
1018.61 1018.61 1018.61 1018.57 1018.57 1018.57 1018.49 1018.33 1018.25 1018.17 1018.01 1017.81 1017.65 1017.37 1017.05 1016.81 1016.49 1016.17 1015.77 1015.41 1015.05 1014.81 1014.61 1014.49 1014.41 1014.33 1014.17 1014.13 1014.05 1014.01 1013.97 1013.97 1014.09 1014.09 1014.01 1013.93 1013.89 1013.89 1013.89 1013.89 1014.01 1014.17
1018.89 1018.89 1018.89 1018.85 1018.89 1018.85 1018.73 1018.65 1018.57 1018.45 1018.29 1018.17 1017.97 1017.73 1017.37 1017.09 1016.85 1016.45 1016.09 1015.77 1015.37 1014.93 1014.65 1014.45 1014.33 1014.21 1014.09 1014.01 1013.89 1013.77 1013.61 1013.45 1013.45 1013.49 1013.57 1013.69 1013.61 1013.57 1013.53 1013.61 1013.81 1013.93
1019.17 1019.17 1019.09 1019.17 1019.25 1019.21 1019.13 1019.01 1018.97 1018.89 1018.73 1018.53 1018.33 1018.17 1017.89 1017.49 1017.17 1016.85 1016.41 1016.17 1015.81 1015.37 1014.93 1014.57 1014.41 1014.33 1014.13 1013.93 1013.77 1013.57 1013.53 1013.45 1013.29 1013.33 1013.41 1013.53 1013.49 1013.37 1013.37 1013.41 1013.49 1013.61
1019.37 1019.33 1019.37 1019.45 1019.57 1019.61 1019.61 1019.53 1019.41 1019.37 1019.13 1018.93 1018.73 1018.53 1018.29 1018.05 1017.65 1017.29 1016.89 1016.69 1016.33 1016.01 1015.53 1015.25 1015.41 1015.33 1015.01 1014.65 1014.37 1013.97 1013.65 1013.45 1013.33 1013.17 1013.21 1013.41 1013.33 1013.21 1013.05 1013.05 1013.17 1013.13
1019.61 1019.61 1019.65 1019.73 1019.81 1019.89 1019.97 1019.89 1019.81 1019.69 1019.53 1019.37 1019.17 1019.01 1018.73 1018.49 1018.29 1018.01 1017.69 1017.41 1016.97 1016.65 1016.21 1016.61 1016.61 1016.45 1016.25 1016.17 1015.81 1015.17 1014.33 1013.53 1013.25 1013.13 1012.85 1012.69 1012.73 1012.85 1012.93 1012.77 1012.81 1012.89
1019.89 1019.97 1020.01 1020.05 1020.09 1020.25 1020.29 1020.25 1020.17 1020.09 1019.89 1019.81 1019.61 1019.45 1019.25 1019.01 1018.69 1018.49 1018.17 1017.89 1017.57 1017.17 1016.77 1017.09 1017.13 1017.05 1016.93 1016.73 1016.25 1015.69 1015.13 1014.33 1013.45 1013.17 1013.09 1012.89 1012.57 1012.61 1012.73 1012.41 1012.33 1012.53
1020.25 1020.29 1020.33 1020.41 1020.53 1020.61 1020.65 1020.65 1020.57 1020.45 1020.29 1020.17 1020.01 1019.81 1019.61 1019.41 1019.21 1019.01 1018.77 1018.49 1018.17 1017.81 1017.45 1017.37 1017.57 1017.41 1017.21 1017.09 1016.85 1016.41 1015.77 1015.01 1014.09 1013.17 1012.85 1012.69 1012.49 1012.49 1012.61 1012.49 1012.21 1012.17
1020.61 1020.61 1020.77 1020.85 1020.89 1020.93 1020.93 1020.93 1020.85 1020.77 1020.69 1020.53 1020.37 1020.17 1020.01 1019.89 1019.69 1019.45 1019.13 1018.85 1018.61 1018.33 1017.97 1017.65 1017.85 1018.01 1018.13 1018.01 1017.41 1016.65 1016.13 1015.45 1014.65 1013.77 1012.93 1012.61 1012.49 1012.41 1012.49 1012.49 1012.25 1012.05
1020.97 1021.01 1021.13 1021.17 1021.13 1021.17 1021.21 1021.17 1021.09 1021.05 1020.93 1020.81 1020.65 1020.53 1020.41 1020.29 1020.13 1019.93 1019.69 1019.45 1019.13 1018.81 1018.49 1018.17 1018.17 1018.25 1018.21 1018.09 1017.89 1017.37 1016.57 1015.77 1014.93 1014.09 1013.29 1012.73 1012.61 1012.49 1012.33 1012.13 1012.09 1012.05
1021.29 1021.33 1021.37 1021.33 1021.33 1021.33 1021.33 1021.33 1021.29 1021.25 1021.21 1021.09 1020.93 1020.81 1020.69 1020.61 1020.53 1020.29 1020.13 1019.89 1019.61 1019.29 1018.93 1018.65 1018.49 1018.45 1018.41 1017.97 1017.49 1017.17 1016.69 1015.93 1015.21 1014.21 1013.17 1012.53 1012.29 1012.09 1012.05 1012.05 1011.81 1011.85
1021.61 1021.57 1021.53 1021.49 1021.45 1021.49 1021.53 1021.53 1021.49 1021.41 1021.37 1021.25 1021.09 1020.97 1020.93 1020.89 1020.77 1020.65 1020.45 1020.17 1019.89 1019.57 1019.25 1018.93 1018.65 1018.45 1018.25 1017.77 1017.21 1016.65 1016.29 1015.89 1015.21 1014.33 1013.33 1012.45 1011.93 1011.85 1011.81 1011.69 1011.49 1011.45
1021.89 1021.81 1021.77 1021.69 1021.69 1021.69 1021.69 1021.61 1021.53 1021.49 1021.49 1021.41 1021.29 1021.21 1021.09 1021.01 1021.01 1020.85 1020.69 1020.45 1020.17 1019.89 1019.61 1019.25 1018.97 1018.77 1018.29 1017.73 1017.17 1016.61 1016.05 1015.69 1015.05 1014.13 1013.33 1012.61 1012.01 1011.69 1011.53 1011.41 1011.41 1011.49
1022.29 1022.21 1022.13 1022.05 1021.97 1021.93 1021.89 1021.77 1021.65 1021.57 1021.61 1021.61 1021.49 1021.33 1021.21 1021.17 1021.09 1021.01 1020.89 1020.69 1020.45 1020.21 1019.89 1019.57 1019.25 1018.97 1018.57 1017.89 1017.17 1016.45 1015.73 1015.13 1014.45 1013.77 1013.05 1012.49 1012.05 1011.69 1011.45 1011.45 1011.33 1011.45
1022.65 1022.61 1022.57 1022.53 1022.37 1022.25 1022.17 1022.05 1021.97 1021.85 1021.73 1021.73 1021.69 1021.61 1021.49 1021.37 1021.29 1021.17 1021.05 1020.89 1020.69 1020.41 1020.05 1019.73 1019.45 1019.21 1018.65 1018.01 1017.29 1016.49 1015.65 1014.73 1013.89 1013.25 1012.61 1012.17 1011.89 1011.45 1011.13 1011.17 1011.13 1011.17
1022.89 1022.93 1022.97 1022.93 1022.81 1022.65 1022.53 1022.37 1022.17 1022.09 1021.97 1021.93 1021.93 1021.85 1021.69 1021.53 1021.45 1021.33 1021.21 1021.05 1020.85 1020.61 1020.29 1019.97 1019.61 1019.25 1018.73 1018.17 1017.53 1016.77 1015.73 1014.61 1013.73 1012.97 1012.45 1012.13 1011.93 1012.21 1012.17 1012.09 1011.73 1011.25
1023.13 1023.25 1023.37 1023.33 1023.29 1023.13 1023.01 1022.85 1022.61 1022.41 1022.33 1022.17 1022.13 1022.01 1021.89 1021.73 1021.65 1021.53 1021.41 1021.25 1021.01 1020.77 1020.57 1020.37 1019.89 1019.45 1019.05 1018.49 1017.85 1017.13 1016.09 1015.21 1014.37 1013.61 1013.17 1012.89 1013.01 1012.89 1012.85 1012.77 1012.57 1012.13
1023.49 1023.61 1023.69 1023.69 1023.61 1023.57 1023.49 1023.33 1023.09 1022.89 1022.77 1022.57 1022.45 1022.25 1022.05 1022.01 1021.89 1021.73 1021.53 1021.37 1021.21 1021.01 1020.77 1020.65 1020.25 1019.85 1019.53 1018.93 1018.25 1017.65 1016.89 1016.17 1015.49 1014.69 1014.13 1013.97 1013.65 1013.49 1013.37 1013.29 1013.05 1012.77
1023.81 1023.93 1024.01 1024.01 1023.97 1023.93 1023.85 1023.73 1023.53 1023.41 1023.21 1022.97 1022.81 1022.61 1022.45 1022.25 1022.09 1021.89 1021.77 1021.57 1021.41 1021.29 1021.01 1020.81 1020.57 1020.13 1019.81 1019.41 1018.77 1018.17 1017.45 1016.77 1016.29 1015.65 1014.93 1014.85 1014.69 1014.45 1014.13 1013.93 1013.57 1013.13
1024.01 1024.17 1024.29 1024.29 1024.29 1024.25 1024.13 1024.05 1023.89 1023.69 1023.53 1023.37 1023.17 1023.01 1022.85 1022.61 1022.33 1022.17 1022.01 1021.89 1021.69 1021.49 1021.33 1021.13 1020.89 1020.53 1020.17 1019.81 1019.25 1018.69 1018.17 1017.49 1016.85 1016.41 1016.21 1015.89 1015.53 1015.17 1014.61 1014.21 1013.93 1013.61
Wind_Speed
6 5 5 5 5 6 6 7 6 4 5 5 5 5 5 5 1 2 6 4 3 2 4 5 6 6 7 7 6 6 7 7 7 7 7 7 8 9 9 9 8 8
4 4 5 5 6 7 8 7 7 6 6 5 4 4 5 4 4 5 4 5 3 3 5 6 7 6 7 6 7 7 8 7 8 6 7 8 8 9 9 9 9 7
5 5 5 9 8 9 9 8 8 7 6 6 6 5 5 4 3 4 4 4 6 5 5 4 5 5 5 6 6 6 7 8 8 6 7 9 9 9 8 8 7 8
5 5 5 7 7 8 8 8 9 9 8 8 7 7 5 5 4 5 4 4 4 4 4 5 5 5 5 4 6 6 7 6 6 5 6 6 6 7 7 7 7 7
4 5 5 6 5 5 6 8 9 9 10 9 9 8 7 6 6 5 5 5 4 4 4 5 5 5 4 4 5 6 6 6 6 6 6 8 7 7 7 7 8 8
4 4 4 6 7 7 6 8 8 9 10 10 10 9 9 9 7 5 4 5 4 4 4 5 5 4 4 6 6 6 5 5 7 8 8 8 7 7 6 6 7 7
7 8 7 8 7 9 8 8 8 8 9 9 9 9 10 11 11 10 7 5 5 4 4 4 4 3 3 4 6 6 6 3 4 6 6 6 6 7 7 7 7 8
9 9 8 10 9 9 10 9 9 9 10 10 10 9 10 10 12 10 11 10 7 5 5 5 4 4 4 4 6 6 5 5 5 7 7 6 6 7 8 7 7 8
9 9 10 11 11 10 11 11 11 11 11 11 11 11 11 10 12 12 11 12 12 9 7 6 4 4 4 6 6 6 5 5 5 3 5 6 7 8 8 8 8 8
11 10 11 11 12 11 12 12 12 11 11 11 11 11 12 12 12 13 12 12 12 13 12 8 6 7 7 6 6 4 5 6 6 5 5 6 7 8 8 7 8 8
11 11 11 11 12 11 13 12 12 11 10 12 11 12 12 12 12 13 13 13 12 13 14 15 16 17 16 14 12 7 4 4 4 5 6 8 8 7 8 8 9 10
11 11 11 11 11 12 12 12 11 11 11 11 12 12 12 12 12 12 11 13 13 13 12 13 12 12 13 12 12 13 12 7 5 6 7 8 9 8 7 8 9 9
11 11 11 10 11 12 11 12 12 12 11 12 12 13 13 13 13 13 12 12 13 12 11 12 12 12 13 14 14 13 12 11 7 5 5 6 7 8 7 7 8 6
11 10 11 11 11 11 11 11 11 11 11 11 12 13 13 13 12 13 11 11 13 12 12 9 12 14 15 16 13 12 12 11 11 8 8 7 7 5 6 8 9 7
10 10 11 12 12 12 12 12 11 11 11 11 12 12 11 13 14 13 13 14 14 13 13 10 10 11 11 13 13 14 11 11 11 11 8 6 6 7 9 10 9 9
10 10 11 10 11 11 11 11 10 10 10 11 11 11 11 12 13 14 13 14 14 14 13 10 9 10 21 23 17 12 13 10 10 8 8 5 6 8 8 7 7 7
10 10 10 10 9 9 9 10 10 9 9 10 10 10 11 11 11 14 15 13 13 13 13 10 9 14 25 21 20 20 13 10 10 10 8 7 5 5 5 6 7 9
10 10 11 10 10 10 9 8 8 8 8 8 9 10 9 9 11 11 11 12 12 13 12 11 9 22 24 23 22 22 19 13 10 9 8 7 5 5 5 6 7 7
10 9 9 9 9 10 9 9 8 8 8 9 10 8 7 9 9 10 11 11 12 13 13 11 10 21 25 25 23 22 21 16 9 9 8 8 7 6 5 6 5 4
10 11 11 11 10 8 8 9 9 9 7 7 8 8 9 9 9 10 10 11 12 12 11 12 12 21 24 25 24 24 23 17 8 9 7 7 7 6 4 3 4 5
9 10 11 11 11 10 9 8 8 8 8 7 8 9 9 9 9 10 10 10 11 11 11 12 12 23 24 25 25 26 25 15 8 8 8 6 6 7 5 4 5 5
7 8 9 10 10 10 10 10 9 7 9 7 6 7 7 7 7 8 10 11 11 12 12 13 13 24 25 26 26 26 25 12 11 8 8 7 6 9 8 7 7 4
7 8 9 10 10 11 11 11 10 10 7 7 7 7 8 9 9 9 9 10 11 12 13 12 13 21 26 26 26 27 20 12 13 11 12 11 10 8 8 8 7 8
9 11 11 12 11 11 11 10 10 10 9 9 9 8 8 8 7 8 8 9 11 12 12 12 13 18 25 25 26 26 20 11 11 11 10 12 11 11 9 9 9 18
9 10 11 11 11 11 10 11 10 9 8 8 9 8 9 7 6 7 8 8 10 11 16 15 13 16 23 24 25 25 20 12 12 11 11 12 11 11 10 8 9 10
7 8 9 10 10 9 9 9 7 8 9 8 8 8 7 7 7 7 8 8 9 11 11 12 14 14 18 24 24 24 24 15 13 11 13 12 11 11 11 12 11 11
Wind_Direction
4 3 10 359 349 346 350 349 336 330 321 321 318 306 293 283 282 217 257 281 244 187 200 240 244 237 229 238 234 254 256 236 219 200 212 221 230 231 219 212 206 199
5 3 5 8 4 4 356 348 339 345 335 327 309 297 297 297 307 292 255 255 273 236 227 234 243 237 230 226 232 236 244 236 229 203 210 226 229 226 230 220 208 195
12 14 28 17 7 2 357 352 348 350 345 340 325 320 310 309 290 261 272 256 252 251 243 235 239 241 240 241 237 235 242 234 233 217 215 224 218 220 223 222 219 198
29 21 28 27 15 10 359 2 1 354 349 349 345 328 319 315 320 308 293 282 274 271 257 246 239 242 248 260 257 243 231 237 235 218 224 235 232 222 214 217 221 211
38 30 38 29 21 20 15 12 4 355 348 345 339 335 328 324 322 315 310 302 289 282 275 265 261 253 239 227 234 233 235 241 243 228 225 228 230 226 225 214 215 214
30 37 32 28 23 15 20 18 10 357 352 349 345 342 344 333 316 305 298 295 287 279 275 270 264 252 230 251 254 248 236 215 229 221 225 218 218 223 224 220 225 224
20 20 31 29 26 20 21 17 10 2 360 347 347 356 350 352 347 336 319 303 296 293 292 291 288 277 240 245 261 270 266 253 259 254 243 226 205 218 221 222 221 222
33 37 36 28 29 22 19 14 12 10 1 360 356 354 353 354 353 349 344 332 314 313 303 290 286 288 282 253 255 259 247 263 231 223 231 227 211 211 222 217 209 220
35 38 34 32 28 22 21 15 16 9 6 5 360 358 356 358 353 351 353 354 349 329 314 314 309 300 291 284 271 262 266 256 258 227 213 224 216 225 220 208 203 209
39 35 34 36 32 22 18 19 18 12 6 6 4 3 1 357 359 355 356 358 353 352 343 330 333 327 312 298 291 268 233 252 242 211 230 238 235 229 224 205 203 209
42 36 34 36 36 27 21 18 19 15 8 6 7 6 7 3 358 357 1 0 356 353 352 9 13 5 1 357 348 329 284 271 261 256 246 251 250 240 224 211 206 213
41 37 33 35 35 32 26 20 18 18 13 13 11 9 8 7 5 1 1 359 355 355 359 29 15 9 6 359 353 350 333 288 253 256 249 242 249 251 238 220 214 211
39 36 32 32 35 33 27 23 22 19 18 18 15 15 14 8 7 4 1 1 356 355 360 33 16 9 5 358 352 346 336 328 288 236 243 249 245 235 227 238 225 210
33 33 33 33 36 33 28 27 21 19 19 19 18 18 16 13 7 4 1 3 359 0 355 32 21 11 5 356 347 335 330 326 322 279 234 240 252 246 228 236 237 223
28 37 37 34 33 33 31 27 22 22 22 20 20 19 17 17 12 7 5 5 6 6 1 10 27 15 8 351 339 333 328 325 324 321 297 251 261 246 219 217 222 227
29 38 38 35 36 34 32 27 24 25 25 23 21 20 21 19 16 15 13 10 7 6 8 9 11 6 354 350 347 337 323 318 316 314 311 286 234 253 251 234 219 230
31 37 33 34 35 35 33 30 27 27 29 27 24 21 22 21 19 20 18 13 8 5 4 3 5 2 352 346 343 340 332 315 314 305 293 296 292 280 256 230 215 204
33 34 34 32 31 30 27 28 25 28 32 28 26 24 23 23 24 21 18 16 11 9 8 1 352 356 351 348 344 340 339 325 303 292 292 295 300 273 268 249 228 209
29 27 29 30 32 31 26 23 21 27 31 26 23 21 22 26 23 19 18 15 13 13 8 2 0 355 351 348 344 340 335 330 289 287 288 288 287 285 264 246 228 214
28 24 25 22 20 22 25 23 22 25 31 29 22 18 21 22 21 22 18 16 13 9 6 5 5 356 352 349 346 343 339 332 302 285 281 280 281 282 273 247 224 190
35 34 35 31 27 23 17 15 18 22 28 28 27 20 16 14 15 18 14 13 12 9 8 7 6 359 355 353 351 347 341 328 300 303 284 282 274 260 264 253 230 198
42 43 39 32 26 21 18 14 13 17 26 25 27 23 22 17 22 20 15 13 10 11 11 7 4 2 360 358 356 353 346 344 335 323 302 299 9 29 16 1 347 314
37 39 37 32 26 24 18 13 13 11 17 20 22 22 22 25 22 18 15 14 12 13 13 7 7 5 2 0 360 358 353 350 354 0 14 19 22 17 17 5 352 349
41 47 45 36 31 29 23 20 17 19 21 16 16 12 17 20 21 17 17 18 16 14 11 9 7 6 5 2 3 2 1 357 355 359 15 14 4 7 7 7 357 6
47 55 52 43 37 30 26 24 20 20 17 18 17 14 13 7 12 17 17 18 18 17 15 14 7 5 6 4 5 6 6 3 6 2 15 16 7 2 0 3 358 2
54 64 59 51 43 35 29 26 19 20 17 18 17 15 10 7 9 15 15 14 15 17 17 14 9 5 4 4 6 8 8 8 15 17 16 9 8 4 359 4 4 6